Location: Melbourne
(37.8666°S, 145.1333°E)
Time: 11:39:53
(UTC+11:00)

HST - Visible Passes

Search period start: 23 October 2014 00:00
Search period end: 02 November 2014 00:00
Orbit: 546 x 550 km, 28.5° (Epoch: 22 October)

Date Brightness Start Highest point End Pass type
(mag) Time Alt. Az. Time Alt. Az. Time Alt. Az.
30 Oct 3.2 05:39:13 10° N 05:40:38 11° NNE 05:42:02 10° NE visible
31 Oct 3.1 05:31:00 10° NNW 05:33:10 14° NNE 05:35:21 10° NE visible
01 Nov 2.9 05:23:06 10° NNW 05:25:43 16° NNE 05:28:21 10° NE visible
